[[{"header":{"parameterUnit":"m.s-1","parameterCategory":1,"la1":30.2991,"la2":30.254,"lo1":-89.0895,"lo2":-89.0444,"dy":0.0017,"dx":0.0017,"nx":28,"ny":28,"refTime":"2024-08-04T21:00:00:Z","depth":0,"parameterNumber":2,"parameterNumberName":"U-component_of_WINDS"},"data":[0,0,0,0,0,0,0,0,0,0,0,0,0,0,0,0,0,0,0,0,0,0,0,0,0,0,0,0,0,0,0,0,0,0,0,0,0,0,0,0,0,0,0,0,0,0,0,0,0,0,0,0,0,0,0,0,0,0,0.4138,0.4137,0,0.4043,0.4042,0.4041,0.3994,0.3994,0.3994,0.3994,0.389,0.3887,0.3884,0,0,0,0,0,0,0,0,0,0,0,0,0,0.4272,0.427,0.4138,0.4137,0.4136,0.4044,0.4042,0.4041,0.3994,0.3994,0.3994,0.3994,0.3891,0.3887,0.3884,0,0,0,0,0,0,0,0,0,0,0,0,0,0.4199,0.4269,0.4138,0.4101,0.4097,0.4044,0.4042,0.4041,0.3994,0.3994,0.3994,0.3994,0.3892,0.3888,0.3884,0.3858,0,0,0.3871,0.3869,0,0,0,0,0,0,0,0,0.4203,0.4194,0.4108,0.4104,0.4099,0.4031,0.4051,0.3979,0.3994,0.4033,0.3994,0.3994,0.3936,0.3928,0.391,0.3853,0.3849,0.387,0.3868,0.3866,0.3865,0,0,0,0,0,0,0,0.4208,0.4198,0.41,0.4107,0.4101,0.4087,0.4077,0.4037,0.3985,0.4029,0.4026,0.4015,0.3933,0.3914,0.3907,0.3847,0.3871,0.3867,0.3864,0.3863,0.3764,0.3764,0,0,0,0,0,0,0.422,0.4202,0.4103,0.4098,0.4152,0.4085,0.4073,0.4052,0.3986,0.3976,0.4016,0.4014,0.3921,0.3912,0.3904,0.3869,0.3866,0.3862,0.386,0.3764,0.3764,0.3764,0,0,0,0,0,0,0.4223,0.4212,0.4107,0.4149,0.4135,0.4083,0.4059,0.405,0.4031,0.3975,0.3965,0.4006,0.3921,0.3909,0.387,0.3865,0.386,0.3857,0.3764,0.3764,0.3764,0.3801,0,0,0,0,0,0,0.4227,0.4213,0.4205,0.4149,0.4133,0.4078,0.4059,0.4049,0.4025,0.4022,0.3964,0.3954,0.392,0.3877,0.3866,0.3859,0.3853,0.3764,0.3764,0.3764,0.38,0.3802,0.3804,0,0,0,0,0,0.4232,0.4217,0.4204,0.4193,0.4121,0.4077,0.4068,0.4031,0.4025,0.4015,0.3979,0.3956,0.3868,0.3873,0.3861,0.3853,0.3764,0.3764,0.3764,0.3799,0.3801,0.3804,0,0,0,0,0,0,0.4271,0.4209,0.4194,0.4161,0.4125,0.407,0.4056,0.4035,0.3998,0.3996,0.395,0.3937,0.3902,0.3873,0.388,0.3824,0.3814,0.3811,0.3844,0.3846,0.3848,0.3856,0.385,0,0,0,0,0,0.4276,0.4248,0.4195,0.417,0.4153,0.4108,0.4087,0.4063,0.4022,0.4006,0.3967,0.3927,0.389,0.3867,0.3829,0.3795,0.3781,0.3784,0.3786,0.3788,0.3785,0.3765,0.3765,0.3763,0.3763,0.3763,0,0,0.4285,0.4248,0.4232,0.4177,0.4146,0.4116,0.4095,0.4064,0.4041,0.4,0.3962,0.3932,0.3884,0.3847,0.3829,0.3822,0.3783,0.3787,0.3789,0.3786,0.3765,0.3765,0.3765,0.3762,0.3762,0.3762,0,0,0.4287,0.4256,0.4233,0.4203,0.4158,0.4128,0.4122,0.407,0.4049,0.401,0.3979,0.395,0.3887,0.3855,0.383,0.382,0.3797,0.3809,0.3819,0.3799,0.38,0.38,0.3796,0.3795,0.3807,0.3807,0.3807,0,0.4303,0.4259,0.4223,0.4195,0.4171,0.4136,0.4111,0.4082,0.4026,0.401,0.4003,0.3925,0.389,0.3845,0.3843,0.3824,0.3815,0.3815,0.3803,0.3802,0.3802,0.3798,0.3796,0.3809,0.3809,0.3808,0.3808,0,0.4282,0.4251,0.4238,0.4187,0.4162,0.4135,0.4093,0.4071,0.4049,0.4019,0.3979,0.3936,0.389,0.3878,0.3854,0.3829,0.3827,0.3812,0.38,0.3805,0.38,0.3798,0.3811,0.3811,0.381,0.381,0,0,0.4304,0.4235,0.4231,0.4208,0.4155,0.413,0.4101,0.4058,0.404,0.4002,0.3976,0.3925,0.3912,0.3884,0.3856,0.3839,0.3834,0.3826,0.3825,0.3829,0.3803,0.3814,0.3813,0.3819,0.3818,0.3818,0.3807,0,0.4298,0.4248,0.4215,0.4176,0.4147,0.4114,0.4088,0.4052,0.4024,0.3993,0.396,0.3925,0.391,0.3893,0.3875,0.3839,0.3828,0.3839,0.3792,0.3791,0.3805,0.3811,0.3822,0.3814,0.3805,0.3805,0.3804,0,0.4285,0.4251,0.4211,0.4162,0.4148,0.4127,0.4085,0.4057,0.4015,0.3995,0.3964,0.3937,0.3903,0.3895,0.3847,0.3855,0.3834,0.3813,0.3812,0.3806,0.3798,0.3804,0.381,0.3809,0.3801,0.3801,0.3802,0,0.4305,0.4249,0.4218,0.4199,0.4141,0.4127,0.4101,0.406,0.4036,0.3999,0.3983,0.3942,0.3919,0.3886,0.3848,0.3845,0.3803,0.3792,0.3784,0.3785,0.3777,0.3778,0.3779,0.3764,0.3764,0.3764,0.3764,0,0.4302,0.4278,0.4226,0.4207,0.4179,0.4141,0.4114,0.4085,0.4049,0.4022,0.3989,0.3964,0.3915,0.3883,0.3852,0.3817,0.3807,0.3789,0.3781,0.3791,0.3794,0.3776,0.3776,0.3763,0.3763,0.3763,0.3764,0,0.432,0.4284,0.4248,0.4197,0.4184,0.4166,0.4121,0.41,0.407,0.4036,0.4026,0.3978,0.3939,0.3898,0.3844,0.3824,0.3789,0.3778,0.3805,0.38,0.3795,0.3796,0.3785,0.3782,0.3769,0.377,0.377,0,0.432,0.4302,0.425,0.4231,0.4207,0.4177,0.4153,0.4114,0.4091,0.4042,0.4027,0.3986,0.3952,0.3891,0.3849,0.3808,0.3795,0.3795,0.3789,0.38,0.3795,0.3797,0.3794,0.3796,0.3797,0.3797,0.3797,0,0.4324,0.4308,0.4277,0.424,0.4214,0.4182,0.4149,0.4134,0.4088,0.4063,0.4025,0.3998,0.3945,0.3904,0.3858,0.3829,0.3805,0.38,0.3796,0.3806,0.3822,0.3813,0.381,0.38,0.38,0.3799,0.3799,0.3799,0.4333,0.4315,0.4277,0.4243,0.4214,0.4184,0.4163,0.4131,0.4099,0.4054,0.4032,0.3994,0.3951,0.3887,0.3859,0.3827,0.382,0.3814,0.3812,0.3812,0.3814,0.3828,0.3818,0.3818,0.3818,0.3818,0.3818,0,0.4336,0.4309,0.4279,0.4235,0.4208,0.4191,0.4153,0.4131,0.4098,0.4062,0.403,0.3985,0.3946,0.3902,0.386,0.3842,0.383,0.3832,0.3833,0.3827,0.3823,0.3831,0.3843,0.3843,0.3843,0.3843,0.3843,0.3843,0.4334,0.4303,0.4282,0.4236,0.4209,0.4173,0.4153,0.4125,0.4096,0.4048,0.4017,0.399,0.395,0.3904,0.3867,0.3855,0.3841,0.3846,0.3831,0.3829,0.3827,0.3825,0.3832,0.3844,0.3844,0.3837,0.3837,0.3837]},{"header":{"parameterUnit":"m.s-1","parameterCategory":1,"la1":30.2991,"la2":30.254,"lo1":-89.0895,"lo2":-89.0444,"dy":0.0017,"dx":0.0017,"nx":28,"ny":28,"refTime":"2024-08-04T21:00:00:Z","depth":0,"parameterNumber":3,"parameterNumberName":"V-component_of_WINDS"},"data":[0,0,0,0,0,0,0,0,0,0,0,0,0,0,0,0,0,0,0,0,0,0,0,0,0,0,0,0,0,0,0,0,0,0,0,0,0,0,0,0,0,0,0,0,0,0,0,0,0,0,0,0,0,0,0,0,0,0,-3.9665,-3.9665,0,-3.9716,-3.9716,-3.9717,-3.9646,-3.9644,-3.9641,-3.9639,-3.9686,-3.969,-3.9693,0,0,0,0,0,0,0,0,0,0,0,0,0,-3.9503,-3.9506,-3.9665,-3.9666,-3.9666,-3.9716,-3.9716,-3.9717,-3.9647,-3.9644,-3.964,-3.9638,-3.9685,-3.9689,-3.9694,0,0,0,0,0,0,0,0,0,0,0,0,0,-3.9565,-3.9507,-3.9665,-3.9637,-3.9635,-3.9716,-3.9716,-3.9717,-3.9647,-3.9643,-3.964,-3.9636,-3.9684,-3.9689,-3.9694,-3.9803,0,0,-3.9711,-3.9713,0,0,0,0,0,0,0,0,-3.9562,-3.9571,-3.9641,-3.9639,-3.9637,-3.9671,-3.9677,-3.9746,-3.9648,-3.9643,-3.9639,-3.9634,-3.9684,-3.9689,-3.9707,-3.9805,-3.9807,-3.9711,-3.9715,-3.9717,-3.9718,0,0,0,0,0,0,0,-3.9558,-3.9569,-3.9685,-3.9642,-3.964,-3.9621,-3.9626,-3.9689,-3.9683,-3.9643,-3.9638,-3.9645,-3.9682,-3.9702,-3.9707,-3.9808,-3.9711,-3.9716,-3.9719,-3.9721,-3.9998,-4.0002,0,0,0,0,0,0,-3.9557,-3.9566,-3.9683,-3.9686,-3.959,-3.9627,-3.9632,-3.9664,-3.9683,-3.9682,-3.9648,-3.9641,-3.9694,-3.9701,-3.9709,-3.9837,-3.9717,-3.9722,-3.9725,-3.9994,-3.9999,-4.0004,0,0,0,0,0,0,-3.9554,-3.9568,-3.9681,-3.9625,-3.9638,-3.9634,-3.967,-3.9667,-3.9686,-3.9687,-3.9685,-3.9669,-3.9692,-3.9701,-3.978,-3.9838,-3.9724,-3.9729,-3.9989,-3.9996,-4.0001,-4.0096,0,0,0,0,0,0,-3.955,-3.9568,-3.961,-3.9626,-3.9641,-3.9753,-3.9673,-3.967,-3.9696,-3.9688,-3.9706,-3.9706,-3.9689,-3.9773,-3.9786,-3.9843,-3.9733,-3.9984,-3.9992,-3.9999,-4.0087,-4.0104,-4.0119,0,0,0,0,0,-3.9544,-3.9633,-3.9612,-3.9627,-3.9694,-3.9757,-3.9765,-3.9746,-3.9701,-3.9743,-3.9743,-3.9705,-3.983,-3.9782,-3.9796,-3.9856,-3.998,-3.999,-3.9999,-4.008,-4.0101,-4.0118,0,0,0,0,0,0,-3.9621,-3.9635,-3.9612,-3.9709,-3.9733,-3.9745,-3.9797,-3.9768,-3.9804,-3.9795,-3.9768,-3.9773,-3.9858,-3.9864,-3.981,-3.9962,-3.9897,-3.991,-3.9954,-3.9974,-3.9989,-3.9986,-3.9738,0,0,0,0,0,-3.965,-3.9702,-3.971,-3.9795,-3.9808,-3.9801,-3.9827,-3.9811,-3.9834,-3.9843,-3.9849,-3.9871,-3.9916,-3.9945,-3.9986,-4.0088,-4.0091,-4.0136,-4.0152,-4.0165,-4.0176,-4.0231,-4.0251,-4.0034,-4.0034,-4.0034,0,0,-3.9709,-3.9723,-3.9756,-3.9811,-3.9827,-3.988,-3.9809,-3.9868,-3.9907,-3.9851,-3.9927,-3.9933,-3.9956,-4.0047,-4.0088,-4.0055,-4.0237,-4.0177,-4.0187,-4.0191,-4.0242,-4.0263,-4.0281,-4.004,-4.0039,-4.0038,0,0,-3.9843,-3.9859,-3.9932,-3.9951,-3.9977,-3.9972,-3.999,-4.0007,-4.0009,-4.0085,-4.0045,-4.009,-4.0167,-4.0185,-4.0204,-4.0348,-4.0314,-4.0362,-4.0444,-4.0497,-4.0515,-4.053,-4.0581,-4.06,-4.0373,-4.0373,-4.0373,0,-3.9913,-3.9992,-3.9972,-4.0035,-4.006,-4.0014,-4.0087,-4.0105,-4.0143,-4.0161,-4.0125,-4.0221,-4.0233,-4.0329,-4.0364,-4.0381,-4.04,-4.0359,-4.0514,-4.0529,-4.0543,-4.0591,-4.0611,-4.0379,-4.0378,-4.0378,-4.0377,0,-4.0077,-4.0133,-4.0188,-4.0228,-4.0259,-4.0326,-4.0316,-4.035,-4.0331,-4.0329,-4.0407,-4.0421,-4.0464,-4.0485,-4.0467,-4.0579,-4.0558,-4.0519,-4.0453,-4.0569,-4.0614,-4.0633,-4.0387,-4.0385,-4.0383,-4.0382,0,0,-4.026,-4.029,-4.031,-4.0328,-4.0355,-4.0397,-4.0462,-4.0506,-4.0536,-4.0564,-4.0617,-4.0684,-4.0648,-4.067,-4.0654,-4.0701,-4.0814,-4.0655,-4.0656,-4.0685,-4.0939,-4.0968,-4.099,-4.0792,-4.0796,-4.0799,-4.0937,0,-4.0394,-4.0509,-4.0494,-4.0603,-4.0654,-4.0612,-4.0669,-4.0691,-4.0692,-4.0735,-4.0734,-4.0783,-4.0731,-4.0745,-4.079,-4.0791,-4.0865,-4.0781,-4.0841,-4.0843,-4.0837,-4.1014,-4.1045,-4.1174,-4.0954,-4.0957,-4.0959,0,-4.0566,-4.0603,-4.0718,-4.0738,-4.0759,-4.0811,-4.085,-4.0892,-4.0916,-4.0913,-4.0939,-4.0914,-4.0979,-4.0913,-4.1001,-4.0944,-4.0968,-4.0973,-4.0977,-4.0981,-4.0908,-4.1023,-4.1215,-4.1235,-4.0987,-4.0985,-4.0983,0,-4.0688,-4.0766,-4.0846,-4.0862,-4.0888,-4.0925,-4.0937,-4.0957,-4.0985,-4.1019,-4.1037,-4.1078,-4.11,-4.1131,-4.1118,-4.1071,-4.1209,-4.1142,-4.1207,-4.1208,-4.1238,-4.1236,-4.1437,-4.1254,-4.1253,-4.1253,-4.1253,0,-4.084,-4.0912,-4.0901,-4.095,-4.103,-4.1011,-4.109,-4.1096,-4.1116,-4.1164,-4.113,-4.1176,-4.1155,-4.1199,-4.1189,-4.1264,-4.1274,-4.1273,-4.1269,-4.1276,-4.1276,-4.1291,-4.1281,-4.1258,-4.1257,-4.1256,-4.1255,0,-4.0989,-4.0985,-4.1069,-4.1087,-4.1093,-4.1151,-4.1166,-4.1211,-4.121,-4.1272,-4.1285,-4.1283,-4.1333,-4.1323,-4.1378,-4.1371,-4.1465,-4.145,-4.1458,-4.1454,-4.1521,-4.1515,-4.1738,-4.1766,-4.1565,-4.1567,-4.1568,0,-4.1086,-4.1141,-4.1166,-4.1197,-4.1213,-4.1263,-4.1292,-4.1276,-4.1307,-4.1339,-4.1381,-4.1429,-4.1466,-4.1549,-4.1551,-4.1594,-4.1579,-4.1655,-4.1585,-4.1591,-4.1581,-4.1578,-4.1583,-4.1668,-4.1671,-4.1672,-4.1674,0,-4.1259,-4.1255,-4.1299,-4.1343,-4.1379,-4.1412,-4.1441,-4.1468,-4.1455,-4.1491,-4.1544,-4.1574,-4.1631,-4.1679,-4.1719,-4.1729,-4.17,-4.1696,-4.1713,-4.1721,-4.1723,-4.1723,-4.1495,-4.1691,-4.1689,-4.1688,-4.1687,-4.1686,-4.1385,-4.1432,-4.1458,-4.1508,-4.1529,-4.1558,-4.1602,-4.1608,-4.1652,-4.1699,-4.1686,-4.1746,-4.1769,-4.1819,-4.1835,-4.1881,-4.1852,-4.1877,-4.1884,-4.189,-4.1899,-4.1716,-4.1888,-4.1887,-4.1887,-4.1886,-4.1886,0,-4.1556,-4.1571,-4.1618,-4.1661,-4.1701,-4.1672,-4.1703,-4.1738,-4.1792,-4.1817,-4.1855,-4.1916,-4.1963,-4.197,-4.2014,-4.2049,-4.2037,-4.2061,-4.2058,-4.2061,-4.1921,-4.1902,-4.2071,-4.2071,-4.2071,-4.207,-4.207,-4.207,-4.165,-4.1729,-4.1728,-4.1817,-4.183,-4.189,-4.1911,-4.1937,-4.1957,-4.2027,-4.2067,-4.2072,-4.2089,-4.2135,-4.2176,-4.2177,-4.2195,-4.2225,-4.222,-4.2089,-4.2071,-4.2053,-4.2035,-4.2229,-4.2229,-4.2356,-4.2358,-4.2358]}]]